CW9822 Weather Reports


time (UTC)temp
C
wind
direction
speed
KPH
gust
KPH
rain 1hr
cm
rain 24hr
cm
rain mn
cm
humidity
%
barometer
mb
20260505124829 8 215 0.0 0.0 0.00 0.00 0.00 95 1015.0
20260505124319 8 215 0.0 0.0 0.00 0.00 0.00 95 1015.0
20260505123848 8 215 0.0 0.0 0.00 0.00 0.00 95 1014.9
20260505123316 8 215 0.0 0.0 0.00 0.00 0.00 95 1014.9
20260505122825 8 215 0.0 0.0 0.00 0.00 0.00 95 1014.8
20260505122319 8 215 0.0 0.0 0.00 0.00 0.00 94 1014.8
20260505121827 7 215 0.0 0.0 0.00 0.00 0.00 94 1014.8
20260505121317 7 215 0.0 0.0 0.00 0.00 0.00 94 1014.8
20260505120829 7 215 0.0 0.0 0.00 0.00 0.00 94 1014.8
20260505120322 7 215 0.0 0.0 0.00 0.00 0.00 94 1014.9
20260505115835 7 215 0.0 0.0 0.00 0.00 0.00 94 1014.9
20260505115325 7 215 0.0 0.0 0.00 0.00 0.00 94 1014.8
20260505114836 7 215 0.0 0.0 0.00 0.00 0.00 93 1014.9
20260505114324 7 215 0.0 0.0 0.00 0.00 0.00 93 1014.8
20260505113817 7 215 0.0 0.0 0.00 0.00 0.00 93 1014.8
20260505113325 7 215 0.0 0.0 0.00 0.00 0.00 93 1014.8
20260505112834 7 215 0.0 0.0 0.00 0.00 0.00 93 1014.8
20260505112323 7 215 0.0 0.0 0.00 0.00 0.00 93 1014.8
20260505111833 7 215 0.0 0.0 0.00 0.00 0.00 93 1014.8
20260505111322 7 215 0.0 0.0 0.00 0.00 0.00 93 1014.7
20260505110832 8 215 0.0 0.0 0.00 0.00 0.00 93 1014.7
20260505110321 8 215 0.0 0.0 0.00 0.00 0.00 93 1014.7
20260505101831 8 215 0.0 0.0 0.00 0.00 0.00 93 1014.3
20260505101319 8 215 0.0 0.0 0.00 0.00 0.00 93 1014.2
20260505100830 8 215 0.0 0.0 0.00 0.00 0.00 93 1014.2
20260505100318 8 215 0.0 0.0 0.00 0.00 0.00 93 1014.3
20260505095832 8 215 0.0 0.0 0.00 0.00 0.00 93 1014.2
20260505095321 8 215 0.0 0.0 0.00 0.00 0.00 93 1014.3
20260505094834 8 215 0.0 0.0 0.00 0.00 0.00 92 1014.2
20260505094322 8 215 0.0 0.0 0.00 0.00 0.00 92 1014.3
20260505093832 8 215 0.0 0.0 0.00 0.00 0.00 92 1014.2
20260505093323 8 215 0.0 0.0 0.00 0.00 0.00 92 1014.2
20260505092833 8 215 0.0 0.0 0.00 0.00 0.00 92 1014.2
20260505092324 8 215 0.0 0.0 0.00 0.00 0.00 92 1014.0
20260505091820 9 215 0.0 0.0 0.00 0.00 0.00 92 1014.1
20260505091330 9 215 0.0 0.0 0.00 0.00 0.00 92 1014.1
20260505090818 9 215 0.0 0.0 0.00 0.00 0.00 92 1014.2
20260505090328 9 215 0.0 0.0 0.00 0.00 0.00 92 1014.2
20260505085839 9 215 0.0 0.0 0.00 0.00 0.00 92 1014.2
20260505085326 9 215 0.0 0.0 0.00 0.00 0.00 92 1014.1
20260505084836 9 215 0.0 0.0 0.00 0.00 0.00 92 1014.1
20260505084324 10 215 0.0 0.0 0.00 0.00 0.00 92 1014.0
20260505083814 10 215 0.0 0.0 0.00 0.00 0.00 92 1014.0
20260505083347 10 215 0.0 0.0 0.00 0.00 0.00 91 1014.0
20260505082818 10 215 0.0 0.0 0.00 0.00 0.00 91 1013.9
20260505082328 10 215 0.0 0.0 0.00 0.00 0.00 91 1013.8
20260505081837 10 215 0.0 0.0 0.00 0.00 0.00 91 1013.8
20260505081325 10 215 0.0 0.0 0.00 0.00 0.00 91 1013.8
20260505080818 10 215 0.0 0.0 0.00 0.00 0.00 91 1013.8
20260505080347 10 215 0.0 0.0 0.00 0.00 0.00 91 1013.7
20260505075839 10 215 0.0 0.0 0.00 0.00 0.00 91 1013.7
20260505075330 10 215 0.0 0.0 0.00 0.00 0.00 91 1013.7
20260505074818 10 215 0.0 0.0 0.00 0.00 0.00 90 1013.6
20260505074328 10 215 0.0 0.0 0.00 0.00 0.00 90 1013.6
20260505073817 10 215 0.0 0.0 0.00 0.00 0.00 90 1013.5
20260505073331 10 215 0.0 0.0 0.00 0.00 0.00 90 1013.5
20260505072819 10 215 0.0 0.0 0.00 0.00 0.00 90 1013.4
20260505072349 10 215 0.0 0.0 0.00 0.00 0.00 90 1013.4
20260505071818 10 215 0.0 0.0 0.00 0.00 0.00 90 1013.5
20260505071326 10 215 0.0 0.0 0.00 0.00 0.00 90 1013.3
20260505070816 10 215 0.0 0.0 0.00 0.00 0.00 90 1013.4
20260505070324 11 215 0.0 0.0 0.00 0.00 0.00 90 1013.3
20260505065831 11 215 0.0 0.0 0.00 0.00 0.00 89 1013.3
20260505065342 11 215 0.0 3.2 0.00 0.00 0.00 89 1013.2
20260505064835 11 215 0.0 3.2 0.00 0.00 0.00 89 1013.3
20260505064343 11 215 0.0 0.0 0.00 0.00 0.00 89 1013.3
20260505063832 11 215 0.0 4.8 0.00 0.00 0.00 89 1013.3
20260505063324 11 215 0.0 4.8 0.00 0.00 0.00 89 1013.3
20260505062833 11 199 0.0 0.0 0.00 0.00 0.00 89 1013.3
20260505062322 11 199 0.0 0.0 0.00 0.00 0.00 89 1013.2
20260505061833 11 199 0.0 0.0 0.00 0.00 0.00 89 1013.2
20260505061324 11 199 0.0 0.0 0.00 0.00 0.00 88 1013.3
20260505060832 11 199 0.0 0.0 0.00 0.00 0.00 88 1013.3
20260505060320 11 199 0.0 0.0 0.00 0.00 0.00 88 1013.3
20260505055831 11 196 0.0 8.0 0.00 0.00 0.00 88 1013.3
20260505055322 11 272 0.0 1.6 0.00 0.00 0.00 88 1013.2
20260505054851 11 273 0.0 0.0 0.00 0.00 0.00 88 1013.1
20260505054319 11 273 0.0 0.0 0.00 0.00 0.00 88 1013.2
20260505053833 11 273 0.0 0.0 0.00 0.00 0.00 87 1013.2
20260505053322 11 273 0.0 1.6 0.00 0.00 0.00 87 1013.1
20260505052831 11 200 0.0 0.0 0.00 0.00 0.00 87 1013.2
20260505052319 11 199 0.0 0.0 0.00 0.00 0.00 87 1013.1
20260505051850 11 199 0.0 0.0 0.00 0.00 0.00 87 1013.2
20260505051318 11 199 0.0 0.0 0.00 0.00 0.00 86 1013.2
20260505050847 11 199 0.0 0.0 0.00 0.00 0.00 86 1013.0
20260505050314 12 199 0.0 0.0 0.00 0.00 0.00 85 1012.9
20260505041333 13 199 0.0 0.0 0.00 0.00 0.00 83 1012.4
20260505040823 13 185 0.0 6.4 0.00 0.00 0.00 82 1012.3
20260505040332 13 185 0.0 6.4 0.00 0.00 0.00 82 1012.1
20260505035841 13 221 0.0 0.0 0.00 0.00 0.00 82 1011.9
20260505035328 13 221 0.0 0.0 0.00 0.00 0.00 82 1011.9
20260505034822 13 221 0.0 0.0 0.00 0.00 0.00 81 1011.9
20260505034332 14 221 0.0 0.0 0.00 0.00 0.00 81 1011.9
20260505033821 14 221 0.0 0.0 0.00 0.00 0.00 80 1011.8
20260505033329 14 221 0.0 0.0 0.00 0.00 0.00 80 1011.7
20260505032818 15 221 0.0 0.0 0.00 0.00 0.00 80 1011.7
20260505032327 15 221 0.0 0.0 0.00 0.00 0.00 79 1011.5
20260505031835 15 221 0.0 0.0 0.00 0.00 0.00 79 1011.3
20260505031325 15 221 0.0 0.0 0.00 0.00 0.00 78 1011.3
20260505030834 15 221 0.0 0.0 0.00 0.00 0.00 77 1011.3
20260505030327 16 221 0.0 0.0 0.00 0.00 0.00 77 1011.4
20260505025817 16 221 0.0 0.0 0.00 0.00 0.00 77 1011.3
20260505025326 16 221 0.0 1.6 0.00 0.00 0.00 76 1011.3
20260505024855 16 221 0.0 0.0 0.00 0.00 0.00 77 1011.2
20260505024322 16 221 0.0 0.0 0.00 0.00 0.00 77 1011.1
20260505023832 16 221 0.0 0.0 0.00 0.00 0.00 76 1011.0
20260505023322 16 221 0.0 1.6 0.00 0.00 0.00 75 1011.0
20260505022831 16 221 0.0 1.6 0.00 0.00 0.00 75 1010.9
20260505022323 17 220 0.0 0.0 0.00 0.00 0.00 74 1010.8
20260505021853 17 220 0.0 0.0 0.00 0.00 0.00 74 1010.8
20260505021321 17 220 0.0 3.2 0.00 0.00 0.00 73 1010.9
20260505020818 17 220 0.0 3.2 0.00 0.00 0.00 73 1010.9
20260505020351 17 224 0.0 3.2 0.00 0.00 0.00 73 1010.9
20260505015823 17 225 0.0 1.6 0.00 0.00 0.00 73 1010.8
20260505015316 17 222 0.0 1.6 0.00 0.00 0.00 71 1010.8
20260505014828 18 222 0.0 4.8 0.00 0.00 0.00 72 1010.8
20260505014321 18 223 0.0 4.8 0.00 0.00 0.00 71 1010.8
20260505013834 18 222 0.0 3.2 0.00 0.00 0.00 71 1010.7
20260505013328 18 254 0.0 3.2 0.00 0.00 0.00 71 1010.8
20260505012820 18 254 0.0 8.0 0.00 0.00 0.00 70 1010.9
20260505012320 18 240 0.0 8.0 0.00 0.00 0.00 71 1011.1
20260505011833 18 254 0.0 3.2 0.00 0.00 0.00 70 1011.1
20260505011325 19 254 0.0 0.0 0.00 0.00 0.00 70 1011.1
20260505010835 19 254 0.0 1.6 0.00 0.00 0.00 70 1011.0
20260505010325 19 254 0.0 1.6 0.00 0.00 0.00 69 1011.0
20260505005833 19 254 0.0 1.6 0.00 0.00 0.00 69 1011.1
20260505005323 19 255 0.0 1.6 0.00 0.00 0.00 69 1011.0
20260505004853 19 255 0.0 6.4 0.00 0.00 0.00 69 1011.1
20260505004321 19 255 0.0 6.4 0.00 0.00 0.00 68 1011.1
20260505003851 19 237 0.0 3.2 0.00 0.00 0.00 68 1011.1
20260505003322 20 239 0.0 1.6 0.00 0.00 0.00 68 1011.0
20260505002832 20 239 0.0 1.6 0.00 0.00 0.00 68 1011.0
20260505002321 20 239 0.0 1.6 0.00 0.00 0.00 67 1011.1
20260505001851 20 256 0.0 1.6 0.00 0.00 0.00 67 1011.0
20260505001322 20 254 0.0 1.6 0.00 0.00 0.00 67 1011.0
20260505000832 20 254 0.0 8.0 0.00 0.00 0.00 66 1011.2
20260505000322 20 249 1.6 8.0 0.00 0.00 0.00 66 1011.2
20260504235852 20 82 1.6 6.4 0.00 0.00 0.00 66 1011.1
20260504235319 20 272 0.0 4.8 0.00 0.00 0.00 68 1011.1
20260504234830 20 280 0.0 4.8 0.00 0.00 0.00 68 1011.1
20260504234322 20 204 0.0 6.4 0.00 0.00 0.00 66 1011.2
20260504233834 20 239 1.6 6.4 0.00 0.00 0.00 65 1011.2
20260504233325 20 197 0.0 6.4 0.00 0.00 0.00 65 1011.2
20260504232818 20 175 0.0 1.6 0.00 0.00 0.00 66 1011.3
20260504232351 20 175 0.0 6.4 0.00 0.00 0.00 66 1011.5
20260504231827 21 175 0.0 6.4 0.00 0.00 0.00 65 1011.4
20260504231340 21 143 0.0 3.2 0.00 0.00 0.00 66 1011.4
20260504230833 21 26 0.0 11.3 0.00 0.00 0.00 64 1011.6
20260504230324 21 345 0.0 11.3 0.00 0.00 0.00 66 1011.5
20260504225818 21 290 1.6 8.0 0.00 0.00 0.00 64 1011.5
20260504225328 21 295 0.0 4.8 0.00 0.00 0.00 66 1011.5
20260504224817 21 235 0.0 6.4 0.00 0.00 0.00 64 1011.5
20260504224326 21 175 0.0 6.4 0.00 0.00 0.00 63 1011.7
20260504223840 21 191 0.0 4.8 0.00 0.00 0.00 62 1011.8
20260504223331 21 208 1.6 4.8 0.00 0.00 0.00 63 1011.8
20260504222820 21 164 0.0 3.2 0.00 0.00 0.00 62 1011.8
20260504222329 21 35 0.0 4.8 0.00 0.00 0.00 64 1011.8
20260504221838 21 91 0.0 6.4 0.00 0.00 0.00 63 1011.9
20260504221330 22 70 1.6 6.4 0.00 0.00 0.00 62 1011.9
20260504220840 22 286 0.0 1.6 0.00 0.00 0.00 62 1011.9
20260504220328 22 219 0.0 3.2 0.00 0.00 0.00 64 1012.0
20260504215825 22 208 0.0 8.0 0.00 0.00 0.00 64 1012.2
20260504215333 22 180 0.0 8.0 0.00 0.00 0.00 61 1012.2
20260504214823 22 163 0.0 4.8 0.00 0.00 0.00 63 1012.3
20260504214333 21 198 0.0 4.8 0.00 0.00 0.00 65 1012.2
20260504213841 21 190 0.0 1.6 0.00 0.00 0.00 64 1012.2
20260504213330 21 192 0.0 8.0 0.00 0.00 0.00 65 1012.2
20260504212839 21 205 0.0 8.0 0.00 0.00 0.00 65 1012.2
20260504212327 21 200 0.0 4.8 0.00 0.00 0.00 68 1012.1
20260504211836 21 234 0.0 4.8 0.00 0.00 0.00 66 1012.4
20260504211326 20 133 0.0 4.8 0.00 0.00 0.00 65 1012.5
20260504210819 20 222 1.6 4.8 0.00 0.00 0.00 65 1012.7
20260504210328 21 207 0.0 4.8 0.00 0.00 0.00 66 1012.5
20260504205820 21 110 0.0 4.8 0.00 0.00 0.00 64 1012.7
20260504205333 21 170 0.0 9.7 0.00 0.00 0.00 67 1012.8
20260504204822 21 227 0.0 9.7 0.00 0.00 0.00 66 1012.9
20260504204331 20 246 0.0 4.8 0.00 0.00 0.00 67 1012.9
20260504203839 20 256 0.0 1.6 0.00 0.00 0.00 69 1012.8
20260504203328 20 138 0.0 0.0 0.00 0.00 0.00 71 1012.9
20260504202817 20 77 0.0 8.0 0.00 0.00 0.00 68 1012.9
20260504202326 20 77 1.6 8.0 0.00 0.00 0.00 67 1013.0
20260504201819 20 199 0.0 4.8 0.00 0.00 0.00 69 1013.0
20260504201332 20 199 0.0 6.4 0.00 0.00 0.00 71 1012.9
20260504200843 19 254 0.0 6.4 0.00 0.00 0.00 70 1012.9
20260504200331 19 151 0.0 3.2 0.00 0.00 0.00 69 1012.9
20260504195820 18 155 0.0 3.2 0.00 0.00 0.00 70 1012.9
20260504195332 18 104 0.0 6.4 0.00 0.00 0.00 70 1012.9
20260504194824 18 92 0.0 6.4 0.00 0.00 0.00 72 1012.9
20260504194317 18 197 0.0 6.4 0.00 0.00 0.00 73 1012.8
20260504193830 18 97 0.0 6.4 0.00 0.00 0.00 71 1012.9
20260504193327 18 97 1.6 6.4 0.00 0.00 0.00 71 1013.0
20260504192820 18 83 0.0 6.4 0.00 0.00 0.00 72 1013.0
20260504192333 17 84 1.6 6.4 0.00 0.00 0.00 72 1013.1
20260504191826 17 89 0.0 1.6 0.00 0.00 0.00 74 1013.1
20260504191337 17 89 0.0 4.8 0.00 0.00 0.00 74 1013.1
20260504190828 17 89 0.0 6.4 0.00 0.00 0.00 73 1013.2
20260504190319 17 164 1.6 4.8 0.00 0.00 0.00 75 1013.2
20260504185829 17 107 1.6 4.8 0.00 0.00 0.00 74 1013.2
20260504185326 17 191 0.0 4.8 0.00 0.00 0.00 75 1013.2
20260504184819 17 77 1.6 4.8 0.00 0.00 0.00 74 1013.3
20260504184352 17 111 0.0 1.6 0.00 0.00 0.00 77 1013.3
20260504183824 17 111 0.0 1.6 0.00 0.00 0.00 76 1013.3
20260504183316 16 111 0.0 6.4 0.00 0.00 0.00 76 1013.4
20260504182829 16 81 0.0 8.0 0.00 0.00 0.00 76 1013.2
20260504182321 16 127 1.6 3.2 0.00 0.00 0.00 76 1013.2
20260504181817 16 134 0.0 4.8 0.00 0.00 0.00 78 1013.2
20260504181330 16 202 0.0 4.8 0.00 0.00 0.00 77 1013.2
20260504180826 16 175 0.0 4.8 0.00 0.00 0.00 77 1013.2
20260504180319 16 212 0.0 4.8 0.00 0.00 0.00 76 1013.2
20260504175831 16 162 0.0 3.2 0.00 0.00 0.00 78 1013.2
20260504175323 16 99 0.0 4.8 0.00 0.00 0.00 78 1013.3
20260504174818 15 243 0.0 3.2 0.00 0.00 0.00 79 1013.2
20260504174330 15 243 0.0 0.0 0.00 0.00 0.00 79 1013.2
20260504173823 15 243 0.0 0.0 0.00 0.00 0.00 80 1013.2
20260504173339 15 243 0.0 0.0 0.00 0.00 0.00 80 1013.3
20260504172852 15 243 0.0 1.6 0.00 0.00 0.00 80 1013.3
20260504172324 15 243 0.0 1.6 0.00 0.00 0.00 82 1013.2
20260504171842 15 244 0.0 0.0 0.00 0.00 0.00 81 1013.3
20260504171334 15 242 0.0 1.6 0.00 0.00 0.00 82 1013.5
20260504170827 14 242 0.0 1.6 0.00 0.00 0.00 82 1013.5
20260504170321 14 243 0.0 0.0 0.00 0.00 0.00 83 1013.5
20260504160333 13 242 0.0 0.0 0.00 0.00 0.00 88 1013.3
20260504150857 10 242 0.0 0.0 0.00 0.00 0.00 94 1013.3
20260504150325 10 242 0.0 0.0 0.00 0.00 0.00 94 1013.2
20260504141323 10 242 0.0 0.0 0.00 0.00 0.00 93 1012.6
20260504140853 10 242 0.0 0.0 0.00 0.00 0.00 93 1012.5
20260504140325 9 242 0.0 0.0 0.00 0.00 0.00 92 1012.5